Time,TemperatureF,DewpointF,PressureIn,WindDirection,WindDirectionDegrees,WindSpeedMPH,WindSpeedGustMPH,Humidity,HourlyPrecipIn,Conditions,Clouds,dailyrainin,SoftwareType,DateUTC
2013-07-04 00:00:00,78.3,73.5,30.21,SSW,197,4.0,8.1,85,0.00,,,0.00,VWS V14.01,2013-07-04 04:00:00,
2013-07-04 00:05:00,78.1,73.3,30.21,SSW,195,2.7,8.1,85,0.00,,,0.00,VWS V14.01,2013-07-04 04:05:00,
2013-07-04 00:10:00,78.1,73.3,30.21,South,182,6.3,6.7,85,0.00,,,0.00,VWS V14.01,2013-07-04 04:10:00,
2013-07-04 00:15:00,78.1,73.3,30.21,SSE,168,5.4,6.3,85,0.00,,,0.00,VWS V14.01,2013-07-04 04:15:00,
2013-07-04 00:20:00,78.1,73.3,30.21,SSW,196,5.8,8.3,85,0.00,,,0.00,VWS V14.01,2013-07-04 04:20:00,
2013-07-04 00:25:00,78.1,73.3,30.21,South,189,4.9,8.3,85,0.00,,,0.00,VWS V14.01,2013-07-04 04:25:00,
2013-07-04 00:30:00,77.9,73.5,30.21,South,189,6.3,8.3,86,0.00,,,0.00,VWS V14.01,2013-07-04 04:30:00,
2013-07-04 00:40:00,77.7,73.3,30.21,South,181,3.6,8.3,86,0.00,,,0.00,VWS V14.01,2013-07-04 04:40:00,
2013-07-04 00:45:00,77.7,73.7,30.21,SSW,193,5.8,7.6,87,0.00,,,0.00,VWS V14.01,2013-07-04 04:45:00,
2013-07-04 00:50:00,77.7,73.7,30.21,SSW,192,4.0,8.1,87,0.00,,,0.00,VWS V14.01,2013-07-04 04:50:00,
2013-07-04 01:00:00,77.2,73.5,30.21,SSW,192,2.7,8.1,88,0.00,,,0.00,VWS V14.01,2013-07-04 05:00:00,
2013-07-04 01:05:00,77.2,73.8,30.21,South,186,5.4,7.2,89,0.00,,,0.00,VWS V14.01,2013-07-04 05:05:00,
2013-07-04 01:15:00,77.2,73.8,30.21,SSW,203,3.6,7.2,89,0.00,,,0.00,VWS V14.01,2013-07-04 05:15:00,
2013-07-04 01:25:00,77.5,73.8,30.24,SSW,202,3.1,5.8,88,0.00,,,0.00,VWS V14.01,2013-07-04 05:25:00,
2013-07-04 01:35:00,77.5,73.8,30.24,SW,214,3.1,5.8,88,0.00,,,0.00,VWS V14.01,2013-07-04 05:35:00,
2013-07-04 01:40:00,77.5,73.8,30.24,SSW,200,3.6,6.3,88,0.00,,,0.00,VWS V14.01,2013-07-04 05:40:00,
2013-07-04 01:50:00,76.8,73.8,30.24,SSW,202,4.0,6.3,90,0.00,,,0.00,VWS V14.01,2013-07-04 05:50:00,
2013-07-04 02:00:00,77.0,73.6,30.21,South,175,2.7,6.3,89,0.00,,,0.00,VWS V14.01,2013-07-04 06:00:00,
2013-07-04 02:10:00,76.6,73.6,30.21,SSW,206,0.0,6.3,90,0.00,,,0.00,VWS V14.01,2013-07-04 06:10:00,
2013-07-04 02:15:00,76.5,73.7,30.21,SSW,198,0.0,4.0,91,0.00,,,0.00,VWS V14.01,2013-07-04 06:15:00,
2013-07-04 02:25:00,76.1,73.7,30.21,South,190,0.0,4.0,92,0.00,,,0.00,VWS V14.01,2013-07-04 06:25:00,
2013-07-04 02:35:00,75.4,73.3,30.21,SE,134,0.0,4.0,93,0.00,,,0.00,VWS V14.01,2013-07-04 06:35:00,
2013-07-04 02:40:00,75.0,73.3,30.21,SE,134,0.0,4.0,94,0.00,,,0.00,VWS V14.01,2013-07-04 06:40:00,
2013-07-04 02:50:00,74.8,73.4,30.21,SE,134,0.0,0.0,95,0.00,,,0.00,VWS V14.01,2013-07-04 06:50:00,
2013-07-04 03:00:00,75.0,73.9,30.21,SSW,199,0.0,4.0,96,0.00,,,0.00,VWS V14.01,2013-07-04 07:00:00,
2013-07-04 03:10:00,75.4,73.6,30.21,South,181,0.0,4.9,94,0.00,,,0.00,VWS V14.01,2013-07-04 07:10:00,
2013-07-04 03:20:00,75.2,73.1,30.21,SSE,158,0.0,4.9,93,0.00,,,0.00,VWS V14.01,2013-07-04 07:20:00,
2013-07-04 03:25:00,75.2,73.1,30.21,South,174,0.0,4.9,93,0.00,,,0.00,VWS V14.01,2013-07-04 07:25:00,
2013-07-04 03:35:00,75.2,73.1,30.21,SSE,160,0.0,3.6,93,0.00,,,0.00,VWS V14.01,2013-07-04 07:35:00,
2013-07-04 03:45:00,75.4,73.3,30.21,South,187,2.2,4.5,93,0.00,,,0.00,VWS V14.01,2013-07-04 07:45:00,
2013-07-04 03:55:00,75.2,73.1,30.21,SSE,152,0.0,4.5,93,0.00,,,0.00,VWS V14.01,2013-07-04 07:55:00,
2013-07-04 04:00:00,75.0,73.3,30.21,South,185,3.6,3.6,94,0.00,,,0.00,VWS V14.01,2013-07-04 08:00:00,
2013-07-04 04:10:00,75.0,73.3,30.21,SSW,198,3.1,4.9,94,0.00,,,0.00,VWS V14.01,2013-07-04 08:10:00,
2013-07-04 04:15:00,75.0,73.3,30.21,South,182,0.0,4.9,94,0.00,,,0.00,VWS V14.01,2013-07-04 08:15:00,
2013-07-04 04:25:00,74.7,73.2,30.21,South,179,0.0,4.0,95,0.00,,,0.00,VWS V14.01,2013-07-04 08:25:00,
2013-07-04 04:35:00,74.8,73.4,30.21,South,189,2.7,5.4,95,0.00,,,0.00,VWS V14.01,2013-07-04 08:35:00,
2013-07-04 04:45:00,74.8,73.4,30.21,SSE,153,0.0,5.4,95,0.00,,,0.00,VWS V14.01,2013-07-04 08:45:00,
2013-07-04 04:55:00,74.7,73.2,30.21,South,176,0.0,4.0,95,0.00,,,0.00,VWS V14.01,2013-07-04 08:55:00,
2013-07-04 05:05:00,74.5,73.4,30.21,SSE,153,3.1,4.0,96,0.00,,,0.00,VWS V14.01,2013-07-04 09:05:00,
2013-07-04 05:10:00,74.7,73.5,30.21,South,186,3.1,4.9,96,0.00,,,0.00,VWS V14.01,2013-07-04 09:10:00,
2013-07-04 05:20:00,74.7,73.5,30.21,SSW,192,0.0,5.4,96,0.00,,,0.00,VWS V14.01,2013-07-04 09:20:00,
2013-07-04 05:30:00,74.8,73.7,30.21,South,184,0.0,4.9,96,0.00,,,0.00,VWS V14.01,2013-07-04 09:30:00,
2013-07-04 05:40:00,74.7,73.8,30.21,South,178,2.2,3.1,97,0.00,,,0.00,VWS V14.01,2013-07-04 09:40:00,
2013-07-04 05:45:00,74.7,73.8,30.21,South,190,3.6,4.9,97,0.00,,,0.00,VWS V14.01,2013-07-04 09:45:00,
2013-07-04 05:55:00,75.0,73.9,30.21,South,179,0.0,4.9,96,0.00,,,0.00,VWS V14.01,2013-07-04 09:55:00,
2013-07-04 06:05:00,75.2,74.1,30.21,South,179,0.0,3.6,96,0.00,,,0.00,VWS V14.01,2013-07-04 10:05:00,
2013-07-04 06:15:00,75.2,74.1,30.24,South,171,0.0,3.6,96,0.00,,,0.00,VWS V14.01,2013-07-04 10:15:00,
2013-07-04 06:20:00,75.2,74.1,30.24,SSW,194,0.0,4.9,96,0.00,,,0.00,VWS V14.01,2013-07-04 10:20:00,
2013-07-04 06:30:00,75.6,74.8,30.24,SSW,196,3.1,4.9,97,0.00,,,0.00,VWS V14.01,2013-07-04 10:30:00,
2013-07-04 06:35:00,75.7,74.6,30.24,SSW,202,3.6,4.9,96,0.00,,,0.00,VWS V14.01,2013-07-04 10:35:00,
2013-07-04 06:40:00,75.9,74.5,30.24,South,188,6.3,6.3,95,0.00,,,0.00,VWS V14.01,2013-07-04 10:40:00,
2013-07-04 06:50:00,75.9,74.5,30.24,South,191,5.8,6.3,95,0.00,,,0.00,VWS V14.01,2013-07-04 10:50:00,
2013-07-04 06:55:00,76.1,74.3,30.24,SSW,196,3.1,6.3,94,0.00,,,0.00,VWS V14.01,2013-07-04 10:55:00,
2013-07-04 07:05:00,76.3,74.5,30.24,SE,126,3.6,8.3,94,0.00,,,0.00,VWS V14.01,2013-07-04 11:05:00,
2013-07-04 07:15:00,76.5,74.7,30.24,SSW,209,4.0,7.2,94,0.00,,,0.00,VWS V14.01,2013-07-04 11:15:00,
2013-07-04 07:25:00,77.2,74.8,30.24,SSW,196,4.0,7.2,92,0.00,,,0.00,VWS V14.01,2013-07-04 11:25:00,
2013-07-04 07:30:00,77.4,74.6,30.24,South,186,4.0,8.7,91,0.00,,,0.00,VWS V14.01,2013-07-04 11:30:00,
2013-07-04 07:40:00,78.3,74.9,30.24,South,182,4.9,10.5,89,0.00,,,0.00,VWS V14.01,2013-07-04 11:40:00,
2013-07-04 07:50:00,79.2,74.0,30.24,SE,136,3.6,10.5,84,0.00,,,0.00,VWS V14.01,2013-07-04 11:50:00,
2013-07-04 08:00:00,79.3,73.1,30.24,SSW,203,3.1,10.1,81,0.00,,,0.00,VWS V14.01,2013-07-04 12:00:00,
2013-07-04 08:10:00,78.4,73.3,30.24,SSW,193,4.0,10.1,84,0.00,,,0.00,VWS V14.01,2013-07-04 12:10:00,
2013-07-04 08:15:00,78.6,73.8,30.24,SSW,193,4.0,8.7,85,0.00,,,0.00,VWS V14.01,2013-07-04 12:15:00,
2013-07-04 08:25:00,78.8,74.0,30.24,South,178,2.7,8.3,85,0.00,,,0.00,VWS V14.01,2013-07-04 12:25:00,
2013-07-04 08:35:00,79.0,73.8,30.24,SSW,194,4.9,10.1,84,0.00,,,0.00,VWS V14.01,2013-07-04 12:35:00,
2013-07-04 08:40:00,79.2,74.4,30.24,South,179,5.4,10.1,85,0.00,,,0.00,VWS V14.01,2013-07-04 12:40:00,
2013-07-04 08:50:00,80.2,73.6,30.24,South,191,10.5,10.5,80,0.00,,,0.00,VWS V14.01,2013-07-04 12:50:00,
2013-07-04 08:55:00,80.1,73.8,30.24,SSW,201,8.7,11.9,81,0.00,,,0.00,VWS V14.01,2013-07-04 12:55:00,
2013-07-04 09:00:00,80.8,74.5,30.24,SSE,149,2.2,11.9,81,0.00,,,0.00,VWS V14.01,2013-07-04 13:00:00,
2013-07-04 09:05:00,80.1,73.8,30.24,South,189,3.1,10.1,81,0.00,,,0.00,VWS V14.01,2013-07-04 13:05:00,
2013-07-04 09:15:00,80.4,74.5,30.24,SW,214,5.8,10.1,82,0.00,,,0.00,VWS V14.01,2013-07-04 13:15:00,
2013-07-04 09:25:00,80.2,74.0,30.24,SSW,207,7.6,11.0,81,0.00,,,0.00,VWS V14.01,2013-07-04 13:25:00,
2013-07-04 09:35:00,80.2,73.6,30.24,South,179,5.4,11.0,80,0.00,,,0.00,VWS V14.01,2013-07-04 13:35:00,
2013-07-04 09:40:00,80.1,73.1,30.24,SSW,198,5.4,11.0,79,0.00,,,0.00,VWS V14.01,2013-07-04 13:40:00,
2013-07-04 09:50:00,80.1,73.4,30.24,SSW,199,3.1,12.3,80,0.00,,,0.00,VWS V14.01,2013-07-04 13:50:00,
2013-07-04 10:00:00,80.2,73.6,30.24,South,182,3.6,12.3,80,0.00,,,0.00,VWS V14.01,2013-07-04 14:00:00,
2013-07-04 10:10:00,80.4,73.8,30.24,South,184,7.6,10.5,80,0.00,,,0.00,VWS V14.01,2013-07-04 14:10:00,
2013-07-04 10:20:00,80.8,73.8,30.24,South,180,8.7,12.3,79,0.00,,,0.00,VWS V14.01,2013-07-04 14:20:00,
2013-07-04 10:25:00,81.0,73.6,30.24,SSW,213,6.3,12.3,78,0.00,,,0.00,VWS V14.01,2013-07-04 14:25:00,
2013-07-04 10:30:00,81.0,73.6,30.24,South,183,8.1,11.0,78,0.00,,,0.00,VWS V14.01,2013-07-04 14:30:00,
2013-07-04 10:35:00,80.8,72.6,30.24,SSW,202,8.7,11.0,76,0.00,,,0.00,VWS V14.01,2013-07-04 14:35:00,
2013-07-04 10:45:00,81.5,73.7,30.24,SSW,204,8.1,10.5,77,0.00,,,0.00,VWS V14.01,2013-07-04 14:45:00,
2013-07-04 10:55:00,81.7,73.5,30.24,SSW,193,4.9,10.5,76,0.00,,,0.00,VWS V14.01,2013-07-04 14:55:00,
2013-07-04 11:00:00,82.6,74.4,30.24,SSW,209,8.7,10.5,76,0.00,,,0.00,VWS V14.01,2013-07-04 15:00:00,
2013-07-04 11:10:00,82.9,73.5,30.24,SSW,209,8.1,12.3,73,0.00,,,0.00,VWS V14.01,2013-07-04 15:10:00,
2013-07-04 11:20:00,83.7,74.2,30.24,SSW,201,8.1,12.3,73,0.00,,,0.00,VWS V14.01,2013-07-04 15:20:00,
2013-07-04 11:25:00,84.0,73.7,30.24,SSW,205,5.8,11.0,71,0.00,,,0.00,VWS V14.01,2013-07-04 15:25:00,
2013-07-04 11:35:00,83.5,73.2,30.24,SSW,194,8.3,11.0,71,0.00,,,0.00,VWS V14.01,2013-07-04 15:35:00,
2013-07-04 11:45:00,83.8,73.6,30.24,SSW,207,3.6,11.0,71,0.00,,,0.00,VWS V14.01,2013-07-04 15:45:00,
2013-07-04 11:55:00,85.6,73.6,30.21,SW,226,7.6,10.1,67,0.00,,,0.00,VWS V14.01,2013-07-04 15:55:00,
2013-07-04 12:05:00,82.9,71.0,30.21,SSW,211,5.4,10.1,67,0.00,,,0.00,VWS V14.01,2013-07-04 16:05:00,
2013-07-04 12:10:00,82.6,72.8,30.24,SSW,194,2.7,10.1,72,0.00,,,0.00,VWS V14.01,2013-07-04 16:10:00,
2013-07-04 12:20:00,81.7,74.7,30.24,SSW,210,4.0,5.8,79,0.00,,,0.00,VWS V14.01,2013-07-04 16:20:00,
2013-07-04 12:30:00,82.6,74.0,30.24,SW,215,5.4,6.7,75,0.00,,,0.00,VWS V14.01,2013-07-04 16:30:00,
2013-07-04 12:40:00,83.7,73.8,30.24,SSW,194,5.8,8.1,72,0.00,,,0.00,VWS V14.01,2013-07-04 16:40:00,
2013-07-04 12:45:00,83.5,73.2,30.21,South,190,3.6,8.1,71,0.00,,,0.00,VWS V14.01,2013-07-04 16:45:00,
2013-07-04 12:50:00,83.5,73.2,30.21,SW,220,6.3,8.1,71,0.00,,,0.00,VWS V14.01,2013-07-04 16:50:00,
2013-07-04 12:55:00,83.7,73.4,30.21,SSW,209,5.8,8.1,71,0.00,,,0.00,VWS V14.01,2013-07-04 16:55:00,
2013-07-04 13:05:00,84.7,73.6,30.21,SSW,207,7.6,8.1,69,0.00,,,0.00,VWS V14.01,2013-07-04 17:05:00,
2013-07-04 13:15:00,86.9,72.5,30.21,SW,228,10.5,11.0,62,0.00,,,0.00,VWS V14.01,2013-07-04 17:15:00,
2013-07-04 13:20:00,86.9,70.0,30.21,SSW,197,8.1,11.0,57,0.00,,,0.00,VWS V14.01,2013-07-04 17:20:00,
2013-07-04 13:30:00,86.5,69.7,30.21,SSW,207,5.4,11.0,57,0.00,,,0.00,VWS V14.01,2013-07-04 17:30:00,
2013-07-04 13:40:00,87.1,69.1,30.21,SW,214,8.1,10.5,55,0.00,,,0.00,VWS V14.01,2013-07-04 17:40:00,
2013-07-04 13:50:00,84.4,68.2,30.21,SSW,192,6.3,10.5,58,0.00,,,0.00,VWS V14.01,2013-07-04 17:50:00,
2013-07-04 13:55:00,82.8,70.8,30.21,South,191,4.0,8.7,67,0.00,,,0.00,VWS V14.01,2013-07-04 17:55:00,
2013-07-04 14:05:00,82.0,73.1,30.21,South,191,0.0,6.3,74,0.00,,,0.00,VWS V14.01,2013-07-04 18:05:00,
2013-07-04 14:15:00,86.9,74.8,30.21,SSW,194,3.6,4.9,67,0.00,,,0.00,VWS V14.01,2013-07-04 18:15:00,
2013-07-04 14:25:00,88.7,70.6,30.21,SSW,202,4.0,5.4,55,0.00,,,0.00,VWS V14.01,2013-07-04 18:25:00,
2013-07-04 14:30:00,89.8,72.2,30.21,South,187,5.4,5.8,56,0.00,,,0.00,VWS V14.01,2013-07-04 18:30:00,
2013-07-04 14:40:00,87.3,71.3,30.21,SW,231,5.4,7.2,59,0.00,,,0.00,VWS V14.01,2013-07-04 18:40:00,
2013-07-04 14:50:00,83.8,72.7,30.21,NNW,338,2.7,8.7,69,0.00,,,0.00,VWS V14.01,2013-07-04 18:50:00,
2013-07-04 15:00:00,82.0,73.8,30.21,North,0,5.4,8.7,76,0.00,,,0.00,VWS V14.01,2013-07-04 19:00:00,
2013-07-04 15:05:00,81.5,73.3,30.21,NW,318,8.1,9.2,76,0.00,,,0.00,VWS V14.01,2013-07-04 19:05:00,
2013-07-04 15:15:00,84.7,76.8,30.21,North,4,8.7,9.2,77,0.00,,,0.00,VWS V14.01,2013-07-04 19:15:00,
2013-07-04 15:25:00,84.2,73.5,30.21,WNW,290,8.3,10.1,70,0.00,,,0.00,VWS V14.01,2013-07-04 19:25:00,
2013-07-04 15:35:00,83.8,74.4,30.21,WNW,283,2.2,8.7,73,0.00,,,0.00,VWS V14.01,2013-07-04 19:35:00,
2013-07-04 15:40:00,85.1,74.8,30.21,NW,325,3.1,8.7,71,0.00,,,0.00,VWS V14.01,2013-07-04 19:40:00,
2013-07-04 15:50:00,85.5,75.5,30.21,WNW,284,2.7,8.1,72,0.00,,,0.00,VWS V14.01,2013-07-04 19:50:00,
2013-07-04 16:00:00,85.3,75.8,30.21,NW,311,4.0,6.3,73,0.00,,,0.00,VWS V14.01,2013-07-04 20:00:00,
2013-07-04 16:10:00,86.2,72.3,30.18,West,265,2.2,6.3,63,0.00,,,0.00,VWS V14.01,2013-07-04 20:10:00,
2013-07-04 16:15:00,86.9,72.9,30.18,NNW,330,4.9,6.3,63,0.00,,,0.00,VWS V14.01,2013-07-04 20:15:00,
2013-07-04 16:25:00,87.6,74.1,30.18,NW,313,3.1,6.3,64,0.00,,,0.00,VWS V14.01,2013-07-04 20:25:00,
2013-07-04 16:35:00,87.6,72.7,30.18,WNW,291,2.2,5.8,61,0.00,,,0.00,VWS V14.01,2013-07-04 20:35:00,
2013-07-04 16:45:00,88.3,72.8,30.18,West,270,2.2,6.3,60,0.00,,,0.00,VWS V14.01,2013-07-04 20:45:00,
2013-07-04 16:50:00,90.0,73.9,30.18,North,11,3.1,6.3,59,0.00,,,0.00,VWS V14.01,2013-07-04 20:50:00,
2013-07-04 17:00:00,85.6,74.9,30.18,WNW,283,4.9,5.4,70,0.00,,,0.00,VWS V14.01,2013-07-04 21:00:00,
2013-07-04 17:10:00,87.1,76.2,30.18,West,278,3.1,5.8,70,0.00,,,0.00,VWS V14.01,2013-07-04 21:10:00,
2013-07-04 17:20:00,87.8,73.3,30.18,NW,317,5.8,8.3,62,0.00,,,0.00,VWS V14.01,2013-07-04 21:20:00,
2013-07-04 17:25:00,88.7,75.1,30.18,WNW,286,5.4,8.3,64,0.00,,,0.00,VWS V14.01,2013-07-04 21:25:00,
2013-07-04 17:35:00,87.1,74.0,30.18,NW,313,3.6,7.6,65,0.00,,,0.00,VWS V14.01,2013-07-04 21:35:00,
2013-07-04 17:40:00,86.7,74.1,30.18,WNW,303,4.0,8.3,66,0.00,,,0.00,VWS V14.01,2013-07-04 21:40:00,
2013-07-04 17:45:00,87.1,74.9,30.18,West,281,5.4,8.3,67,0.00,,,0.00,VWS V14.01,2013-07-04 21:45:00,
2013-07-04 17:55:00,86.9,73.9,30.18,NW,325,5.4,8.3,65,0.00,,,0.00,VWS V14.01,2013-07-04 21:55:00,
2013-07-04 18:00:00,87.1,73.1,30.18,WNW,283,4.9,8.1,63,0.00,,,0.00,VWS V14.01,2013-07-04 22:00:00,
2013-07-04 18:10:00,86.4,73.8,30.18,NW,311,0.0,6.3,66,0.00,,,0.00,VWS V14.01,2013-07-04 22:10:00,
2013-07-04 18:20:00,84.9,71.5,30.18,WNW,285,6.3,7.6,64,0.00,,,0.00,VWS V14.01,2013-07-04 22:20:00,
2013-07-04 18:30:00,86.4,72.4,30.18,WNW,298,4.0,7.6,63,0.00,,,0.00,VWS V14.01,2013-07-04 22:30:00,
2013-07-04 18:35:00,86.2,71.8,30.18,NW,309,5.8,8.1,62,0.00,,,0.00,VWS V14.01,2013-07-04 22:35:00,
2013-07-04 18:45:00,85.5,70.6,30.15,NW,307,6.3,8.1,61,0.00,,,0.00,VWS V14.01,2013-07-04 22:45:00,
2013-07-04 18:55:00,85.5,69.7,30.15,NNW,329,4.0,6.7,59,0.00,,,0.00,VWS V14.01,2013-07-04 22:55:00,
2013-07-04 19:00:00,85.1,69.8,30.15,NW,316,3.1,6.7,60,0.00,,,0.00,VWS V14.01,2013-07-04 23:00:00,
2013-07-04 19:10:00,84.0,69.8,30.18,NNW,328,4.0,6.3,62,0.00,,,0.00,VWS V14.01,2013-07-04 23:10:00,
2013-07-04 19:15:00,82.9,70.1,30.18,North,353,3.6,5.8,65,0.00,,,0.00,VWS V14.01,2013-07-04 23:15:00,
2013-07-04 19:20:00,82.6,71.1,30.18,North,357,0.0,5.8,68,0.00,,,0.00,VWS V14.01,2013-07-04 23:20:00,
2013-07-04 19:30:00,81.7,71.5,30.18,North,357,0.0,4.9,71,0.00,,,0.00,VWS V14.01,2013-07-04 23:30:00,
2013-07-04 19:40:00,79.9,74.0,30.18,North,0,0.0,0.0,82,0.00,,,0.00,VWS V14.01,2013-07-04 23:40:00,
2013-07-04 19:45:00,80.1,74.9,30.18,North,1,3.1,3.1,84,0.00,,,0.00,VWS V14.01,2013-07-04 23:45:00,
2013-07-04 19:55:00,79.0,75.6,30.18,North,0,0.0,3.1,89,0.00,,,0.00,VWS V14.01,2013-07-04 23:55:00,
2013-07-04 20:05:00,78.6,77.2,30.18,North,1,0.0,0.0,95,0.00,,,0.00,VWS V14.01,2013-07-05 00:05:00,
2013-07-04 20:10:00,78.4,77.9,30.18,North,357,0.0,0.0,98,0.00,,,0.00,VWS V14.01,2013-07-05 00:10:00,
2013-07-04 20:20:00,78.1,78.1,30.18,North,0,0.0,2.2,100,0.00,,,0.00,VWS V14.01,2013-07-05 00:20:00,
2013-07-04 20:30:00,77.7,77.7,30.18,North,357,0.0,2.2,100,0.00,,,0.00,VWS V14.01,2013-07-05 00:30:00,
2013-07-04 20:40:00,77.2,77.2,30.21,North,357,0.0,0.0,100,0.00,,,0.00,VWS V14.01,2013-07-05 00:40:00,
2013-07-04 20:50:00,76.8,76.8,30.21,North,0,0.0,2.2,100,0.00,,,0.00,VWS V14.01,2013-07-05 00:50:00,
2013-07-04 20:55:00,76.6,76.7,30.21,North,357,0.0,3.1,100,0.00,,,0.00,VWS V14.01,2013-07-05 00:55:00,
2013-07-04 21:05:00,75.9,75.9,30.21,North,0,0.0,3.1,100,0.00,,,0.00,VWS V14.01,2013-07-05 01:05:00,
2013-07-04 21:15:00,75.7,75.8,30.21,North,0,0.0,2.2,100,0.00,,,0.00,VWS V14.01,2013-07-05 01:15:00,
2013-07-04 21:25:00,74.8,74.8,30.21,North,357,0.0,2.7,100,0.00,,,0.00,VWS V14.01,2013-07-05 01:25:00,
2013-07-04 21:30:00,74.5,74.5,30.21,North,0,0.0,2.7,100,0.00,,,0.00,VWS V14.01,2013-07-05 01:30:00,
2013-07-04 21:40:00,74.5,74.5,30.21,North,0,0.0,0.0,100,0.00,,,0.00,VWS V14.01,2013-07-05 01:40:00,
2013-07-04 21:50:00,74.5,74.5,30.21,North,357,0.0,0.0,100,0.00,,,0.00,VWS V14.01,2013-07-05 01:50:00,
2013-07-04 22:00:00,73.9,73.9,30.21,North,0,0.0,2.7,100,0.00,,,0.00,VWS V14.01,2013-07-05 02:00:00,
2013-07-04 22:05:00,73.9,73.9,30.21,North,0,0.0,2.7,100,0.00,,,0.00,VWS V14.01,2013-07-05 02:05:00,
2013-07-04 22:15:00,73.9,73.9,30.21,North,0,0.0,2.7,100,0.00,,,0.00,VWS V14.01,2013-07-05 02:15:00,
2013-07-04 22:25:00,73.9,73.9,30.21,North,0,0.0,0.0,100,0.00,,,0.00,VWS V14.01,2013-07-05 02:25:00,
2013-07-04 22:30:00,73.9,73.9,30.21,North,0,0.0,0.0,100,0.00,,,0.00,VWS V14.01,2013-07-05 02:30:00,
2013-07-04 22:40:00,73.9,73.9,30.21,North,0,0.0,0.0,100,0.00,,,0.00,VWS V14.01,2013-07-05 02:40:00,
2013-07-04 22:50:00,72.3,72.3,30.21,North,357,0.0,0.0,100,0.00,,,0.00,VWS V14.01,2013-07-05 02:50:00,
2013-07-04 23:00:00,72.5,72.5,30.21,North,0,0.0,2.7,100,0.00,,,0.00,VWS V14.01,2013-07-05 03:00:00,
2013-07-04 23:10:00,72.1,72.2,30.21,North,0,2.2,3.1,100,0.00,,,0.00,VWS V14.01,2013-07-05 03:10:00,
2013-07-04 23:15:00,72.1,72.2,30.21,North,0,2.7,3.1,100,0.00,,,0.00,VWS V14.01,2013-07-05 03:15:00,
2013-07-04 23:25:00,72.1,72.2,30.21,North,0,0.0,2.7,100,0.00,,,0.00,VWS V14.01,2013-07-05 03:25:00,
2013-07-04 23:35:00,72.0,72.0,30.21,North,0,0.0,2.2,100,0.00,,,0.00,VWS V14.01,2013-07-05 03:35:00,
2013-07-04 23:45:00,71.6,71.6,30.21,North,0,0.0,0.0,100,0.00,,,0.00,VWS V14.01,2013-07-05 03:45:00,
2013-07-04 23:50:00,71.4,71.4,30.21,North,0,0.0,0.0,100,0.00,,,0.00,VWS V14.01,2013-07-05 03:50:00,